Satellite-Ground Cal/Val Region Overpasses Predictions

Prediction of Satellite NPP Overpassing Cal/Val Region: PacNW

Region Location: (Latitude: 10.00, Longitude: 139.50) to (Latitude: 22.70, Longitude: 165.60).

Table of predicted overpasses for the next 14.0 days since TLE Epoch: 6/17/2017
Interval Starting Time Starting Location Ending Time Ending Location
1 06/17/2017 16:01:43 ( 22.68, 144.51) 06/17/2017 16:05:19 ( 10.00, 141.49)
2 06/18/2017 03:10:48 ( 10.05, 152.02) 06/18/2017 03:14:23 ( 22.67, 149.02)
3 06/18/2017 15:42:41 ( 22.65, 149.26) 06/18/2017 15:46:16 ( 10.03, 146.26)
4 06/19/2017 02:51:46 ( 10.02, 156.79) 06/19/2017 02:55:21 ( 22.64, 153.78)
5 06/19/2017 15:23:39 ( 22.68, 154.03) 06/19/2017 15:27:14 ( 10.06, 151.02)
6 06/20/2017 02:32:44 ( 10.06, 161.54) 06/20/2017 02:36:19 ( 22.68, 158.53)
7 06/20/2017 15:04:37 ( 22.65, 158.78) 06/20/2017 15:08:12 ( 10.02, 155.77)
8 06/21/2017 02:14:35 ( 13.14, 165.59) 06/21/2017 02:17:17 ( 22.65, 163.30)
9 06/21/2017 03:55:12 ( 10.03, 140.93) 06/21/2017 03:56:56 ( 16.14, 139.51)
10 06/21/2017 14:45:35 ( 22.67, 163.54) 06/21/2017 14:49:10 ( 10.05, 160.54)
11 06/22/2017 03:36:10 ( 10.01, 145.69) 06/22/2017 03:39:46 ( 22.69, 142.67)
12 06/22/2017 14:29:46 ( 11.31, 165.59) 06/22/2017 14:30:08 ( 10.02, 165.29)
13 06/22/2017 16:08:02 ( 22.69, 142.93) 06/22/2017 16:11:38 ( 10.01, 139.92)
14 06/23/2017 03:17:08 ( 10.04, 150.44) 06/23/2017 03:20:43 ( 22.66, 147.44)
15 06/23/2017 15:49:01 ( 22.66, 147.68) 06/23/2017 15:52:36 ( 10.04, 144.68)
16 06/24/2017 02:58:06 ( 10.01, 155.21) 06/24/2017 03:01:42 ( 22.70, 152.19)
17 06/24/2017 15:29:58 ( 22.69, 152.45) 06/24/2017 15:33:34 ( 10.01, 149.43)
18 06/25/2017 02:39:04 ( 10.05, 159.96) 06/25/2017 02:42:39 ( 22.67, 156.96)
19 06/25/2017 15:10:57 ( 22.65, 157.20) 06/25/2017 15:14:32 ( 10.03, 154.20)
20 06/26/2017 02:20:02 ( 10.02, 164.73) 06/26/2017 02:23:37 ( 22.65, 161.72)
21 06/26/2017 14:51:54 ( 22.68, 161.97) 06/26/2017 14:55:29 ( 10.06, 158.96)
22 06/27/2017 03:42:29 ( 10.01, 144.11) 06/27/2017 03:46:05 ( 22.69, 141.10)
23 06/27/2017 14:34:11 ( 18.07, 165.59) 06/27/2017 14:36:28 ( 10.02, 163.71)
24 06/27/2017 16:14:22 ( 22.69, 141.35) 06/27/2017 16:16:32 ( 15.07, 139.51)
25 06/28/2017 03:23:28 ( 10.04, 148.87) 06/28/2017 03:27:03 ( 22.66, 145.86)
26 06/28/2017 15:55:20 ( 22.66, 146.11) 06/28/2017 15:58:55 ( 10.04, 143.10)
27 06/29/2017 03:04:25 ( 10.02, 153.63) 06/29/2017 03:08:01 ( 22.70, 150.61)
28 06/29/2017 15:36:18 ( 22.68, 150.87) 06/29/2017 15:39:54 ( 10.00, 147.85)
29 06/30/2017 02:45:24 ( 10.05, 158.38) 06/30/2017 02:48:59 ( 22.68, 155.38)
30 06/30/2017 15:17:17 ( 22.65, 155.62) 06/30/2017 15:20:52 ( 10.03, 152.62)


NCC Satellite Cal/Val Overpasses Prediction Service
